User: anonymous   Login
Location: Unspecified
(0.0000°N, 0.0000°E)
Time: 01:30:37
(UTC+00:00)
Language:

Meteor 2-15 - Orbit

View from above orbital plane
View from above orbital plane
View from above satellite
View from above satellite

Ground track
Ground track

The orbit data is extracted from the following two-line orbital elements,

1 17290U 87001A   18174.28729656 +.00000024 +00000-0 +84024-5 0  9990
2 17290 082.4680 280.3710 0014328 075.5715 284.7034 13.85020926590174
Epoch (UTC): 23 June 2018 06:53:42
Eccentricity: 0.0014328
inclination: 82.4680°
perigee height: 935 km
apogee height: 956 km
right ascension of ascending node: 280.3710°
argument of perigee: 75.5715°
revolutions per day: 13.85020926
mean anomaly at epoch: 284.7034°
orbit number at epoch: 59017

The dashed part of the orbit path shows where the satellite is in the earth's shadow,  

DLR